Tracking 19570 objects as of 22-Feb-2019
HD Live streaming from Space Station
objects crossing your sky now

NATO 4A R/B(PAM-D)

Track NATO 4A R/B(PAM-D) now!


NORAD ID: 21049
Int'l Code: 1991-001C
Perigee: 777.9 km
Apogee: 35,455.9 km
Inclination: 25.4 °
Period: 635.6 minutes
Semi major axis: 24487 km
RCS: 2.9861 m2 (large)
Launch date: January 8, 1991
Source: United States (US)
Launch site: AIR FORCE EASTERN TEST RANGE (AFETR)

Note: This is a ROCKET BODY
aabbcc
Your satellite tracking list
Your tracking list is empty




NASA's NSSDC Master Catalog

Two Line Element Set (TLE):
1 21049U 91001C   19052.74453662 -.00000120  00000-0 -13562-2 0  9995
2 21049  25.4314 143.0187 7080654 158.8363 271.4686  2.26556098232830
Source of the keplerian elements: AFSPC